Year,Month,Day,Hour,Minute,Value (Times are PST for temperature in C)
2009,08,20,00,00,17.70
2009,08,20,00,01,17.70
2009,08,20,00,02,17.70
2009,08,20,00,03,17.70
2009,08,20,00,04,17.70
2009,08,20,00,05,17.70
2009,08,20,00,06,17.70
2009,08,20,00,07,17.70
2009,08,20,00,08,17.70
2009,08,20,00,09,17.70
2009,08,20,00,10,17.70
2009,08,20,00,11,17.60
2009,08,20,00,12,17.60
2009,08,20,00,13,17.60
2009,08,20,00,14,17.60
2009,08,20,00,15,17.60
2009,08,20,00,16,17.60
2009,08,20,00,17,17.60
2009,08,20,00,18,17.60
2009,08,20,00,19,17.60
2009,08,20,00,20,17.60
2009,08,20,00,21,17.60
2009,08,20,00,22,17.60
2009,08,20,00,23,17.60
2009,08,20,00,24,17.60
2009,08,20,00,25,17.60
2009,08,20,00,26,17.60
2009,08,20,00,27,17.60
2009,08,20,00,28,17.60
2009,08,20,00,29,17.60
2009,08,20,00,30,17.60
2009,08,20,00,31,17.60
2009,08,20,00,32,17.60
2009,08,20,00,33,17.60
2009,08,20,00,34,17.60
2009,08,20,00,35,17.60
2009,08,20,00,36,17.60
2009,08,20,00,37,17.50
2009,08,20,00,38,17.50
2009,08,20,00,39,17.50
2009,08,20,00,40,17.50
2009,08,20,00,41,17.50
2009,08,20,00,42,17.50
2009,08,20,00,43,17.50
2009,08,20,00,44,17.40
2009,08,20,00,45,17.40
2009,08,20,00,46,17.40
2009,08,20,00,47,17.40
2009,08,20,00,48,17.40
2009,08,20,00,49,17.40
2009,08,20,00,50,17.40
2009,08,20,00,51,17.40
2009,08,20,00,52,17.40
2009,08,20,00,53,17.40
2009,08,20,00,54,17.40
2009,08,20,00,55,17.40
2009,08,20,00,56,17.40
2009,08,20,00,57,17.40
2009,08,20,00,58,17.40
2009,08,20,00,59,17.40
2009,08,20,01,00,17.40
2009,08,20,01,01,17.40
2009,08,20,01,02,17.40
2009,08,20,01,03,17.40
2009,08,20,01,04,17.40
2009,08,20,01,05,17.40
2009,08,20,01,06,17.40
2009,08,20,01,07,17.40
2009,08,20,01,08,17.40
2009,08,20,01,09,17.40
2009,08,20,01,10,17.30
2009,08,20,01,11,17.30
2009,08,20,01,12,17.30
2009,08,20,01,13,17.30
2009,08,20,01,14,17.30
2009,08,20,01,15,17.30
2009,08,20,01,16,17.30
2009,08,20,01,17,17.30
2009,08,20,01,18,17.30
2009,08,20,01,19,17.40
2009,08,20,01,20,17.40
2009,08,20,01,21,17.40
2009,08,20,01,22,17.40
2009,08,20,01,23,17.40
2009,08,20,01,24,17.40
2009,08,20,01,25,17.40
2009,08,20,01,26,17.40
2009,08,20,01,27,17.40
2009,08,20,01,28,17.40
2009,08,20,01,29,17.40
2009,08,20,01,30,17.40
2009,08,20,01,31,17.40
2009,08,20,01,32,17.40
2009,08,20,01,33,17.40
2009,08,20,01,34,17.40
2009,08,20,01,35,17.30
2009,08,20,01,36,17.30
2009,08,20,01,37,17.40
2009,08,20,01,38,17.40
2009,08,20,01,39,17.40
2009,08,20,01,40,17.40
2009,08,20,01,41,17.40
2009,08,20,01,42,17.40
2009,08,20,01,43,17.40
2009,08,20,01,44,17.40
2009,08,20,01,45,17.40
2009,08,20,01,46,17.40
2009,08,20,01,47,17.30
2009,08,20,01,48,17.30
2009,08,20,01,49,17.30
2009,08,20,01,50,17.30
2009,08,20,01,51,17.30
2009,08,20,01,52,17.30
2009,08,20,01,53,17.30
2009,08,20,01,54,17.30
2009,08,20,01,55,17.30
2009,08,20,01,56,17.30
2009,08,20,01,57,17.30
2009,08,20,01,58,17.30
2009,08,20,01,59,17.30
2009,08,20,02,00,17.30
2009,08,20,02,01,17.30
2009,08,20,02,02,17.30
2009,08,20,02,03,17.30
2009,08,20,02,04,17.30
2009,08,20,02,05,17.30
2009,08,20,02,06,17.30
2009,08,20,02,07,17.30
2009,08,20,02,08,17.30
2009,08,20,02,09,17.30
2009,08,20,02,10,17.30
2009,08,20,02,11,17.30
2009,08,20,02,12,17.30
2009,08,20,02,13,17.30
2009,08,20,02,14,17.30
2009,08,20,02,15,17.30
2009,08,20,02,16,17.30
2009,08,20,02,17,17.30
2009,08,20,02,18,17.30
2009,08,20,02,19,17.30
2009,08,20,02,20,17.30
2009,08,20,02,21,17.20
2009,08,20,02,22,17.20
2009,08,20,02,23,17.20
2009,08,20,02,24,17.20
2009,08,20,02,25,17.20
2009,08,20,02,26,17.20
2009,08,20,02,27,17.20
2009,08,20,02,28,17.20
2009,08,20,02,29,17.20
2009,08,20,02,30,17.20
2009,08,20,02,31,17.20
2009,08,20,02,32,17.20
2009,08,20,02,33,17.20
2009,08,20,02,34,17.20
2009,08,20,02,35,17.20
2009,08,20,02,36,17.20
2009,08,20,02,37,17.20
2009,08,20,02,38,17.20
2009,08,20,02,39,17.20
2009,08,20,02,40,17.20
2009,08,20,02,41,17.20
2009,08,20,02,42,17.20
2009,08,20,02,43,17.20
2009,08,20,02,44,17.20
2009,08,20,02,45,17.20
2009,08,20,02,46,17.20
2009,08,20,02,47,17.20
2009,08,20,02,48,17.20
2009,08,20,02,49,17.20
2009,08,20,02,50,17.20
2009,08,20,02,51,17.20
2009,08,20,02,52,17.20
2009,08,20,02,53,17.20
2009,08,20,02,54,17.20
2009,08,20,02,55,17.20
2009,08,20,02,56,17.10
2009,08,20,02,57,17.10
2009,08,20,02,58,17.10
2009,08,20,02,59,17.10
2009,08,20,03,00,17.10
2009,08,20,03,01,17.10
2009,08,20,03,02,17.10
2009,08,20,03,03,17.10
2009,08,20,03,04,17.10
2009,08,20,03,05,17.10
2009,08,20,03,06,17.10
2009,08,20,03,07,17.10
2009,08,20,03,08,17.10
2009,08,20,03,09,17.10
2009,08,20,03,10,17.10
2009,08,20,03,11,17.10
2009,08,20,03,12,17.00
2009,08,20,03,13,17.10
2009,08,20,03,14,17.00
2009,08,20,03,15,17.00
2009,08,20,03,16,17.10
2009,08,20,03,17,17.10
2009,08,20,03,18,17.00
2009,08,20,03,19,17.00
2009,08,20,03,20,17.10
2009,08,20,03,21,17.10
2009,08,20,03,22,17.10
2009,08,20,03,23,17.10
2009,08,20,03,24,17.10
2009,08,20,03,25,17.10
2009,08,20,03,26,17.10
2009,08,20,03,27,17.10
2009,08,20,03,28,17.10
2009,08,20,03,29,17.10
2009,08,20,03,30,17.10
2009,08,20,03,31,17.10
2009,08,20,03,32,17.10
2009,08,20,03,33,17.10
2009,08,20,03,34,17.10
2009,08,20,03,35,17.10
2009,08,20,03,36,17.10
2009,08,20,03,37,17.10
2009,08,20,03,38,17.10
2009,08,20,03,39,17.10
2009,08,20,03,40,17.10
2009,08,20,03,41,17.10
2009,08,20,03,42,17.10
2009,08,20,03,43,17.10
2009,08,20,03,44,17.10
2009,08,20,03,45,17.10
2009,08,20,03,46,17.10
2009,08,20,03,47,17.10
2009,08,20,03,48,17.10
2009,08,20,03,49,17.10
2009,08,20,03,50,17.10
2009,08,20,03,51,17.10
2009,08,20,03,52,17.00
2009,08,20,03,53,17.00
2009,08,20,03,54,17.00
2009,08,20,03,55,17.00
2009,08,20,03,56,17.00
2009,08,20,03,57,17.00
2009,08,20,03,58,17.00
2009,08,20,03,59,17.00
2009,08,20,04,00,17.00
2009,08,20,04,01,17.00
2009,08,20,04,02,17.00
2009,08,20,04,03,17.00
2009,08,20,04,04,17.00
2009,08,20,04,05,17.00
2009,08,20,04,06,17.00
2009,08,20,04,07,17.00
2009,08,20,04,08,17.00
2009,08,20,04,09,17.00
2009,08,20,04,10,16.90
2009,08,20,04,11,16.90
2009,08,20,04,12,16.90
2009,08,20,04,13,16.90
2009,08,20,04,14,16.90
2009,08,20,04,15,16.90
2009,08,20,04,16,16.90
2009,08,20,04,17,16.90
2009,08,20,04,18,16.90
2009,08,20,04,19,16.90
2009,08,20,04,20,16.90
2009,08,20,04,21,16.90
2009,08,20,04,22,16.90
2009,08,20,04,23,16.90
2009,08,20,04,24,16.80
2009,08,20,04,25,16.80
2009,08,20,04,26,16.80
2009,08,20,04,27,16.80
2009,08,20,04,28,16.80
2009,08,20,04,29,16.80
2009,08,20,04,30,16.80
2009,08,20,04,31,16.80
2009,08,20,04,32,16.80
2009,08,20,04,33,16.80
2009,08,20,04,34,16.80
2009,08,20,04,35,16.80
2009,08,20,04,36,16.80
2009,08,20,04,37,16.80
2009,08,20,04,38,16.80
2009,08,20,04,39,16.80
2009,08,20,04,40,16.80
2009,08,20,04,41,16.80
2009,08,20,04,42,16.80
2009,08,20,04,43,16.80
2009,08,20,04,44,16.70
2009,08,20,04,45,16.70
2009,08,20,04,46,16.70
2009,08,20,04,47,16.70
2009,08,20,04,48,16.70
2009,08,20,04,49,16.70
2009,08,20,04,50,16.70
2009,08,20,04,51,16.70
2009,08,20,04,52,16.70
2009,08,20,04,53,16.70
2009,08,20,04,54,16.70
2009,08,20,04,55,16.70
2009,08,20,04,56,16.70
2009,08,20,04,57,16.70
2009,08,20,04,58,16.70
2009,08,20,04,59,16.70
2009,08,20,05,00,16.70
2009,08,20,05,01,16.70
2009,08,20,05,02,16.70
2009,08,20,05,03,16.70
2009,08,20,05,04,16.70
2009,08,20,05,05,16.70
2009,08,20,05,06,16.70
2009,08,20,05,07,16.70
2009,08,20,05,08,16.70
2009,08,20,05,09,16.70
2009,08,20,05,10,16.60
2009,08,20,05,11,16.60
2009,08,20,05,12,16.60
2009,08,20,05,13,16.60
2009,08,20,05,14,16.60
2009,08,20,05,15,16.60
2009,08,20,05,16,16.60
2009,08,20,05,17,16.60
2009,08,20,05,18,16.60
2009,08,20,05,19,16.60
2009,08,20,05,20,16.60
2009,08,20,05,21,16.60
2009,08,20,05,22,16.60
2009,08,20,05,23,16.60
2009,08,20,05,24,16.60
2009,08,20,05,25,16.60
2009,08,20,05,26,16.60
2009,08,20,05,27,16.60
2009,08,20,05,28,16.60
2009,08,20,05,29,16.60
2009,08,20,05,30,16.60
2009,08,20,05,31,16.60
2009,08,20,05,32,16.50
2009,08,20,05,33,16.50
2009,08,20,05,34,16.50
2009,08,20,05,35,16.50
2009,08,20,05,36,16.50
2009,08,20,05,37,16.50
2009,08,20,05,38,16.50
2009,08,20,05,39,16.50
2009,08,20,05,40,16.50
2009,08,20,05,41,16.50
2009,08,20,05,42,16.50
2009,08,20,05,43,16.50
2009,08,20,05,44,16.50
2009,08,20,05,45,16.50
2009,08,20,05,46,16.50
2009,08,20,05,47,16.50
2009,08,20,05,48,16.60
2009,08,20,05,49,16.60
2009,08,20,05,50,16.60
2009,08,20,05,51,16.60
2009,08,20,05,52,16.60
2009,08,20,05,53,16.60
2009,08,20,05,54,16.60
2009,08,20,05,55,16.60
2009,08,20,05,56,16.60
2009,08,20,05,57,16.60
2009,08,20,05,58,16.60
2009,08,20,05,59,16.60
2009,08,20,06,00,16.60
2009,08,20,06,01,16.60
2009,08,20,06,02,16.60
2009,08,20,06,03,16.60
2009,08,20,06,04,16.60
2009,08,20,06,05,16.60
2009,08,20,06,06,16.60
2009,08,20,06,07,16.60
2009,08,20,06,08,16.60
2009,08,20,06,09,16.60
2009,08,20,06,10,16.60
2009,08,20,06,11,16.60
2009,08,20,06,12,16.60
2009,08,20,06,13,16.60
2009,08,20,06,14,16.60
2009,08,20,06,15,16.60
2009,08,20,06,16,16.60
2009,08,20,06,17,16.60
2009,08,20,06,18,16.60
2009,08,20,06,19,16.60
2009,08,20,06,20,16.60
2009,08,20,06,21,16.60
2009,08,20,06,22,16.60
2009,08,20,06,23,16.60
2009,08,20,06,24,16.60
2009,08,20,06,25,16.60
2009,08,20,06,26,16.60
2009,08,20,06,27,16.60
2009,08,20,06,28,16.60
2009,08,20,06,29,16.50
2009,08,20,06,30,16.50
2009,08,20,06,31,16.50
2009,08,20,06,32,16.60
2009,08,20,06,33,16.50
2009,08,20,06,34,16.60
2009,08,20,06,35,16.60
2009,08,20,06,36,16.60
2009,08,20,06,37,16.60
2009,08,20,06,38,16.60
2009,08,20,06,39,16.60
2009,08,20,06,40,16.60
2009,08,20,06,41,16.60
2009,08,20,06,42,16.60
2009,08,20,06,43,16.60
2009,08,20,06,44,16.60
2009,08,20,06,45,16.60
2009,08,20,06,46,16.60
2009,08,20,06,47,16.60
2009,08,20,06,48,16.60
2009,08,20,06,49,16.60
2009,08,20,06,50,16.60
2009,08,20,06,51,16.60
2009,08,20,06,52,16.60
2009,08,20,06,53,16.60
2009,08,20,06,54,16.60
2009,08,20,06,55,16.60
2009,08,20,06,56,16.60
2009,08,20,06,57,16.60
2009,08,20,06,58,16.60
2009,08,20,06,59,16.60
2009,08,20,07,00,16.60
2009,08,20,07,01,16.60
2009,08,20,07,02,16.60
2009,08,20,07,03,16.60
2009,08,20,07,04,16.60
2009,08,20,07,05,16.60
2009,08,20,07,06,16.60
2009,08,20,07,07,16.60
2009,08,20,07,08,16.60
2009,08,20,07,09,16.60
2009,08,20,07,10,16.70
2009,08,20,07,11,16.70
2009,08,20,07,12,16.70
2009,08,20,07,13,16.70
2009,08,20,07,14,16.70
2009,08,20,07,15,16.70
2009,08,20,07,16,16.70
2009,08,20,07,17,16.70
2009,08,20,07,18,16.70
2009,08,20,07,19,16.80
2009,08,20,07,20,16.80
2009,08,20,07,21,16.80
2009,08,20,07,22,16.80
2009,08,20,07,23,16.80
2009,08,20,07,24,16.80
2009,08,20,07,25,16.80
2009,08,20,07,26,16.80
2009,08,20,07,27,16.80
2009,08,20,07,28,16.90
2009,08,20,07,29,16.90
2009,08,20,07,30,16.90
2009,08,20,07,31,16.90
2009,08,20,07,32,16.90
2009,08,20,07,33,16.90
2009,08,20,07,34,16.90
2009,08,20,07,35,17.00
2009,08,20,07,36,17.00
2009,08,20,07,37,17.00
2009,08,20,07,38,17.10
2009,08,20,07,39,17.10
2009,08,20,07,40,17.10
2009,08,20,07,41,17.20
2009,08,20,07,42,17.20
2009,08,20,07,43,17.20
2009,08,20,07,44,17.30
2009,08,20,07,45,17.30
2009,08,20,07,46,17.30
2009,08,20,07,47,17.30
2009,08,20,07,48,17.40
2009,08,20,07,49,17.40
2009,08,20,07,50,17.40
2009,08,20,07,51,17.40
2009,08,20,07,52,17.40
2009,08,20,07,53,17.50
2009,08,20,07,54,17.50
2009,08,20,07,55,17.60
2009,08,20,07,56,17.60
2009,08,20,07,57,17.60
2009,08,20,07,58,17.60
2009,08,20,07,59,17.70
2009,08,20,08,00,17.70
2009,08,20,08,01,17.70
2009,08,20,08,02,17.70
2009,08,20,08,03,17.80
2009,08,20,08,04,17.80
2009,08,20,08,05,17.80
2009,08,20,08,06,17.80
2009,08,20,08,07,17.90
2009,08,20,08,08,17.90
2009,08,20,08,09,17.90
2009,08,20,08,10,18.00
2009,08,20,08,11,18.10
2009,08,20,08,12,18.10
2009,08,20,08,13,18.20
2009,08,20,08,14,18.20
2009,08,20,08,15,18.30
2009,08,20,08,16,18.40
2009,08,20,08,17,18.50
2009,08,20,08,18,18.70
2009,08,20,08,19,18.90
2009,08,20,08,20,19.00
2009,08,20,08,21,19.10
2009,08,20,08,22,19.20
2009,08,20,08,23,19.30
2009,08,20,08,24,19.40
2009,08,20,08,25,19.50
2009,08,20,08,26,19.70
2009,08,20,08,27,19.80
2009,08,20,08,28,19.90
2009,08,20,08,29,20.10
2009,08,20,08,30,20.30
2009,08,20,08,31,20.50
2009,08,20,08,32,20.60
2009,08,20,08,33,20.70
2009,08,20,08,34,20.80
2009,08,20,08,35,20.90
2009,08,20,08,36,21.00
2009,08,20,08,37,21.00
2009,08,20,08,38,21.10
2009,08,20,08,39,21.10
2009,08,20,08,40,21.00
2009,08,20,08,41,21.00
2009,08,20,08,42,21.00
2009,08,20,08,43,20.90
2009,08,20,08,44,20.90
2009,08,20,08,45,20.90
2009,08,20,08,46,20.80
2009,08,20,08,47,20.80
2009,08,20,08,48,20.80
2009,08,20,08,49,20.80
2009,08,20,08,50,20.80
2009,08,20,08,51,20.80
2009,08,20,08,52,20.80
2009,08,20,08,53,20.90
2009,08,20,08,54,21.00
2009,08,20,08,55,21.00
2009,08,20,08,56,21.00
2009,08,20,08,57,21.10
2009,08,20,08,58,21.20
2009,08,20,08,59,21.30
2009,08,20,09,00,21.40
2009,08,20,09,01,21.60
2009,08,20,09,02,21.70
2009,08,20,09,03,21.80
2009,08,20,09,04,21.80
2009,08,20,09,05,21.90
2009,08,20,09,06,22.10
2009,08,20,09,07,22.10
2009,08,20,09,08,22.20
2009,08,20,09,09,22.30
2009,08,20,09,10,22.30
2009,08,20,09,11,22.40
2009,08,20,09,12,22.50
2009,08,20,09,13,22.50
2009,08,20,09,14,22.60
2009,08,20,09,15,22.70
2009,08,20,09,16,22.70
2009,08,20,09,17,22.70
2009,08,20,09,18,22.80
2009,08,20,09,19,22.80
2009,08,20,09,20,22.90
2009,08,20,09,21,23.00
2009,08,20,09,22,23.00
2009,08,20,09,23,23.10
2009,08,20,09,24,23.10
2009,08,20,09,25,23.10
2009,08,20,09,26,23.10
2009,08,20,09,27,23.20
2009,08,20,09,28,23.20
2009,08,20,09,29,23.20
2009,08,20,09,30,23.20
2009,08,20,09,31,23.20
2009,08,20,09,32,23.20
2009,08,20,09,33,23.20
2009,08,20,09,34,23.20
2009,08,20,09,35,23.20
2009,08,20,09,36,23.20
2009,08,20,09,37,23.30
2009,08,20,09,38,23.30
2009,08,20,09,39,23.30
2009,08,20,09,40,23.30
2009,08,20,09,41,23.40
2009,08,20,09,42,23.40
2009,08,20,09,43,23.50
2009,08,20,09,44,23.50
2009,08,20,09,45,23.60
2009,08,20,09,46,23.60
2009,08,20,09,47,23.60
2009,08,20,09,48,23.70
2009,08,20,09,49,23.70
2009,08,20,09,50,23.70
2009,08,20,09,51,23.70
2009,08,20,09,52,23.70
2009,08,20,09,53,23.70
2009,08,20,09,54,23.70
2009,08,20,09,55,23.70
2009,08,20,09,56,23.70
2009,08,20,09,57,23.70
2009,08,20,09,58,23.70
2009,08,20,09,59,23.80
2009,08,20,10,00,23.80
2009,08,20,10,01,23.80
2009,08,20,10,02,23.80
2009,08,20,10,03,23.90
2009,08,20,10,04,23.90
2009,08,20,10,05,24.00
2009,08,20,10,06,24.10
2009,08,20,10,07,24.10
2009,08,20,10,08,24.00
2009,08,20,10,09,24.00
2009,08,20,10,10,24.00
2009,08,20,10,11,24.00
2009,08,20,10,12,23.90
2009,08,20,10,13,23.90
2009,08,20,10,14,23.90
2009,08,20,10,15,24.00
2009,08,20,10,16,24.00
2009,08,20,10,17,24.00
2009,08,20,10,18,24.10
2009,08,20,10,19,24.10
2009,08,20,10,20,24.20
2009,08,20,10,21,24.20
2009,08,20,10,22,24.20
2009,08,20,10,23,24.20
2009,08,20,10,24,24.20
2009,08,20,10,25,24.20
2009,08,20,10,26,24.20
2009,08,20,10,27,24.20
2009,08,20,10,28,24.20
2009,08,20,10,29,24.30
2009,08,20,10,30,24.30
2009,08,20,10,31,24.30
2009,08,20,10,32,24.30
2009,08,20,10,33,24.30
2009,08,20,10,34,24.40
2009,08,20,10,35,24.40
2009,08,20,10,36,24.50
2009,08,20,10,37,24.50
2009,08,20,10,38,24.60
2009,08,20,10,39,24.60
2009,08,20,10,40,24.70
2009,08,20,10,41,24.70
2009,08,20,10,42,24.70
2009,08,20,10,43,24.70
2009,08,20,10,44,24.70
2009,08,20,10,45,24.80
2009,08,20,10,46,24.80
2009,08,20,10,47,24.80
2009,08,20,10,48,24.90
2009,08,20,10,49,24.90
2009,08,20,10,50,25.00
2009,08,20,10,51,25.10
2009,08,20,10,52,25.10
2009,08,20,10,53,25.10
2009,08,20,10,54,25.20
2009,08,20,10,55,25.20
2009,08,20,10,56,25.20
2009,08,20,10,57,25.20
2009,08,20,10,58,25.20
2009,08,20,10,59,25.30
2009,08,20,11,00,25.30
2009,08,20,11,01,25.30
2009,08,20,11,02,25.40
2009,08,20,11,03,25.40
2009,08,20,11,04,25.30
2009,08,20,11,05,25.30
2009,08,20,11,06,25.30
2009,08,20,11,07,25.30
2009,08,20,11,08,25.40
2009,08,20,11,09,25.40
2009,08,20,11,10,25.40
2009,08,20,11,11,25.40
2009,08,20,11,12,25.40
2009,08,20,11,13,25.40
2009,08,20,11,14,25.40
2009,08,20,11,15,25.50
2009,08,20,11,16,25.50
2009,08,20,11,17,25.60
2009,08,20,11,18,25.60
2009,08,20,11,19,25.70
2009,08,20,11,20,25.70
2009,08,20,11,21,25.70
2009,08,20,11,22,25.70
2009,08,20,11,23,25.80
2009,08,20,11,24,25.80
2009,08,20,11,25,25.90
2009,08,20,11,26,25.90
2009,08,20,11,27,25.90
2009,08,20,11,28,25.90
2009,08,20,11,29,25.90
2009,08,20,11,30,26.00
2009,08,20,11,31,26.10
2009,08,20,11,32,26.10
2009,08,20,11,33,26.10
2009,08,20,11,34,26.20
2009,08,20,11,35,26.20
2009,08,20,11,36,26.40
2009,08,20,11,37,26.40
2009,08,20,11,38,26.50
2009,08,20,11,39,26.50
2009,08,20,11,40,26.50
2009,08,20,11,41,26.50
2009,08,20,11,42,26.50
2009,08,20,11,43,26.50
2009,08,20,11,44,26.60
2009,08,20,11,45,26.60
2009,08,20,11,46,26.60
2009,08,20,11,47,26.50
2009,08,20,11,48,26.40
2009,08,20,11,49,26.30
2009,08,20,11,50,26.20
2009,08,20,11,51,26.10
2009,08,20,11,52,26.00
2009,08,20,11,53,25.90
2009,08,20,11,54,25.90
2009,08,20,11,55,25.90
2009,08,20,11,56,25.90
2009,08,20,11,57,25.90
2009,08,20,11,58,26.00
2009,08,20,11,59,26.10
2009,08,20,12,00,26.20
2009,08,20,12,01,26.20
2009,08,20,12,02,26.20
2009,08,20,12,03,26.30
2009,08,20,12,04,26.30
2009,08,20,12,05,26.40
2009,08,20,12,06,26.30
2009,08,20,12,07,26.30
2009,08,20,12,08,26.30
2009,08,20,12,09,26.40
2009,08,20,12,10,26.50
2009,08,20,12,11,26.60
2009,08,20,12,12,26.70
2009,08,20,12,13,26.70
2009,08,20,12,14,26.80
2009,08,20,12,15,26.80
2009,08,20,12,16,26.80
2009,08,20,12,17,26.80
2009,08,20,12,18,26.70
2009,08,20,12,19,26.70
2009,08,20,12,20,26.70
2009,08,20,12,21,26.70
2009,08,20,12,22,26.70
2009,08,20,12,23,26.70
2009,08,20,12,24,26.70
2009,08,20,12,25,26.70
2009,08,20,12,26,26.70
2009,08,20,12,27,26.70
2009,08,20,12,28,26.60
2009,08,20,12,29,26.50
2009,08,20,12,30,26.50
2009,08,20,12,31,26.40
2009,08,20,12,32,26.40
2009,08,20,12,33,26.40
2009,08,20,12,34,26.40
2009,08,20,12,35,26.40
2009,08,20,12,36,26.40
2009,08,20,12,37,26.40
2009,08,20,12,38,26.40
2009,08,20,12,39,26.40
2009,08,20,12,40,26.30
2009,08,20,12,41,26.30
2009,08,20,12,42,26.30
2009,08,20,12,43,26.30
2009,08,20,12,44,26.30
2009,08,20,12,45,26.30
2009,08,20,12,46,26.30
2009,08,20,12,47,26.30
2009,08,20,12,48,26.30
2009,08,20,12,49,26.30
2009,08,20,12,50,26.30
2009,08,20,12,51,26.30
2009,08,20,12,52,26.30
2009,08,20,12,53,26.30
2009,08,20,12,54,26.30
2009,08,20,12,55,26.30
2009,08,20,12,56,26.40
2009,08,20,12,57,26.40
2009,08,20,12,58,26.40
2009,08,20,12,59,26.40
2009,08,20,13,00,26.50
2009,08,20,13,01,26.50
2009,08,20,13,02,26.60
2009,08,20,13,03,26.50
2009,08,20,13,04,26.50
2009,08,20,13,05,26.50
2009,08,20,13,06,26.40
2009,08,20,13,07,26.30
2009,08,20,13,08,26.30
2009,08,20,13,09,26.30
2009,08,20,13,10,26.30
2009,08,20,13,11,26.30
2009,08,20,13,12,26.30
2009,08,20,13,13,26.40
2009,08,20,13,14,26.40
2009,08,20,13,15,26.40
2009,08,20,13,16,26.40
2009,08,20,13,17,26.40
2009,08,20,13,18,26.50
2009,08,20,13,19,26.50
2009,08,20,13,20,26.60
2009,08,20,13,21,26.60
2009,08,20,13,22,26.70
2009,08,20,13,23,26.80
2009,08,20,13,24,26.80
2009,08,20,13,25,26.90
2009,08,20,13,26,26.90
2009,08,20,13,27,26.90
2009,08,20,13,28,26.80
2009,08,20,13,29,26.80
2009,08,20,13,30,26.80
2009,08,20,13,31,26.80
2009,08,20,13,32,26.80
2009,08,20,13,33,26.80
2009,08,20,13,34,26.80
2009,08,20,13,35,26.90
2009,08,20,13,36,26.90
2009,08,20,13,37,26.90
2009,08,20,13,38,26.80
2009,08,20,13,39,26.90
2009,08,20,13,40,26.90
2009,08,20,13,41,26.80
2009,08,20,13,42,26.80
2009,08,20,13,43,26.80
2009,08,20,13,44,26.90
2009,08,20,13,45,26.90
2009,08,20,13,46,26.90
2009,08,20,13,47,27.00
2009,08,20,13,48,26.90
2009,08,20,13,49,26.90
2009,08,20,13,50,26.90
2009,08,20,13,51,26.80
2009,08,20,13,52,26.80
2009,08,20,13,53,26.80
2009,08,20,13,54,26.60
2009,08,20,13,55,26.50
2009,08,20,13,56,26.40
2009,08,20,13,57,26.40
2009,08,20,13,58,26.30
2009,08,20,13,59,26.20
2009,08,20,14,00,26.10
2009,08,20,14,01,26.10
2009,08,20,14,02,26.00
2009,08,20,14,03,26.00
2009,08,20,14,04,26.00
2009,08,20,14,05,26.00
2009,08,20,14,06,25.90
2009,08,20,14,07,25.90
2009,08,20,14,08,25.90
2009,08,20,14,09,25.80
2009,08,20,14,10,25.80
2009,08,20,14,11,25.70
2009,08,20,14,12,25.60
2009,08,20,14,13,25.60
2009,08,20,14,14,25.60
2009,08,20,14,15,25.60
2009,08,20,14,16,25.60
2009,08,20,14,17,25.60
2009,08,20,14,18,25.70
2009,08,20,14,19,25.70
2009,08,20,14,20,25.70
2009,08,20,14,21,25.70
2009,08,20,14,22,25.70
2009,08,20,14,23,25.70
2009,08,20,14,24,25.70
2009,08,20,14,25,25.60
2009,08,20,14,26,25.60
2009,08,20,14,27,25.60
2009,08,20,14,28,25.60
2009,08,20,14,29,25.60
2009,08,20,14,30,25.60
2009,08,20,14,31,25.60
2009,08,20,14,32,25.60
2009,08,20,14,33,25.60
2009,08,20,14,34,25.60
2009,08,20,14,35,25.70
2009,08,20,14,36,25.70
2009,08,20,14,37,25.70
2009,08,20,14,38,25.70
2009,08,20,14,39,25.80
2009,08,20,14,40,25.90
2009,08,20,14,41,25.90
2009,08,20,14,42,25.90
2009,08,20,14,43,25.90
2009,08,20,14,44,25.90
2009,08,20,14,45,26.00
2009,08,20,14,46,26.00
2009,08,20,14,47,25.90
2009,08,20,14,48,25.90
2009,08,20,14,49,25.90
2009,08,20,14,50,25.90
2009,08,20,14,51,25.90
2009,08,20,14,52,25.90
2009,08,20,14,53,25.90
2009,08,20,14,54,25.90
2009,08,20,14,55,26.00
2009,08,20,14,56,26.00
2009,08,20,14,57,26.00
2009,08,20,14,58,26.00
2009,08,20,14,59,26.10
2009,08,20,15,00,26.10
2009,08,20,15,01,26.10
2009,08,20,15,02,26.20
2009,08,20,15,03,26.20
2009,08,20,15,04,26.30
2009,08,20,15,05,26.30
2009,08,20,15,06,26.30
2009,08,20,15,07,26.30
2009,08,20,15,08,26.30
2009,08,20,15,09,26.30
2009,08,20,15,10,26.30
2009,08,20,15,11,26.30
2009,08,20,15,12,26.30
2009,08,20,15,13,26.30
2009,08,20,15,14,26.30
2009,08,20,15,15,26.30
2009,08,20,15,16,26.30
2009,08,20,15,17,26.30
2009,08,20,15,18,26.30
2009,08,20,15,19,26.30
2009,08,20,15,20,26.30
2009,08,20,15,21,26.20
2009,08,20,15,22,26.20
2009,08,20,15,23,26.20
2009,08,20,15,24,26.20
2009,08,20,15,25,26.20
2009,08,20,15,26,26.20
2009,08,20,15,27,26.20
2009,08,20,15,28,26.20
2009,08,20,15,29,26.20
2009,08,20,15,30,26.20
2009,08,20,15,31,26.20
2009,08,20,15,32,26.30
2009,08,20,15,33,26.30
2009,08,20,15,34,26.30
2009,08,20,15,35,26.30
2009,08,20,15,36,26.30
2009,08,20,15,37,26.30
2009,08,20,15,38,26.40
2009,08,20,15,39,26.40
2009,08,20,15,40,26.40
2009,08,20,15,41,26.40
2009,08,20,15,42,26.40
2009,08,20,15,43,26.30
2009,08,20,15,44,26.30
2009,08,20,15,45,26.30
2009,08,20,15,46,26.20
2009,08,20,15,47,26.20
2009,08,20,15,48,26.20
2009,08,20,15,49,26.20
2009,08,20,15,50,26.20
2009,08,20,15,51,26.20
2009,08,20,15,52,26.20
2009,08,20,15,53,26.10
2009,08,20,15,54,26.00
2009,08,20,15,55,25.90
2009,08,20,15,56,25.90
2009,08,20,15,57,25.90
2009,08,20,15,58,25.80
2009,08,20,15,59,25.70
2009,08,20,16,00,25.60
2009,08,20,16,01,25.50
2009,08,20,16,02,25.50
2009,08,20,16,03,25.40
2009,08,20,16,04,25.30
2009,08,20,16,05,25.30
2009,08,20,16,06,25.20
2009,08,20,16,07,25.10
2009,08,20,16,08,25.10
2009,08,20,16,09,25.10
2009,08,20,16,10,25.10
2009,08,20,16,11,25.10
2009,08,20,16,12,25.10
2009,08,20,16,13,25.20
2009,08,20,16,14,25.20
2009,08,20,16,15,25.20
2009,08,20,16,16,25.30
2009,08,20,16,17,25.30
2009,08,20,16,18,25.30
2009,08,20,16,19,25.40
2009,08,20,16,20,25.50
2009,08,20,16,21,25.60
2009,08,20,16,22,25.70
2009,08,20,16,23,25.80
2009,08,20,16,24,25.90
2009,08,20,16,25,26.00
2009,08,20,16,26,26.10
2009,08,20,16,27,26.20
2009,08,20,16,28,26.30
2009,08,20,16,29,26.30
2009,08,20,16,30,26.30
2009,08,20,16,31,26.30
2009,08,20,16,32,26.30
2009,08,20,16,33,26.20
2009,08,20,16,34,26.20
2009,08,20,16,35,26.30
2009,08,20,16,36,26.30
2009,08,20,16,37,26.40
2009,08,20,16,38,26.40
2009,08,20,16,39,26.50
2009,08,20,16,40,26.50
2009,08,20,16,41,26.60
2009,08,20,16,42,26.60
2009,08,20,16,43,26.60
2009,08,20,16,44,26.60
2009,08,20,16,45,26.70
2009,08,20,16,46,26.70
2009,08,20,16,47,26.70
2009,08,20,16,48,26.60
2009,08,20,16,49,26.60
2009,08,20,16,50,26.50
2009,08,20,16,51,26.50
2009,08,20,16,52,26.50
2009,08,20,16,53,26.40
2009,08,20,16,54,26.50
2009,08,20,16,55,26.40
2009,08,20,16,56,26.40
2009,08,20,16,57,26.40
2009,08,20,16,58,26.40
2009,08,20,16,59,26.30
2009,08,20,17,00,26.20
2009,08,20,17,01,26.00
2009,08,20,17,02,25.90
2009,08,20,17,03,25.80
2009,08,20,17,04,25.60
2009,08,20,17,05,25.50
2009,08,20,17,06,25.40
2009,08,20,17,07,25.30
2009,08,20,17,08,25.20
2009,08,20,17,09,25.10
2009,08,20,17,10,25.10
2009,08,20,17,11,25.10
2009,08,20,17,12,25.20
2009,08,20,17,13,25.20
2009,08,20,17,14,25.30
2009,08,20,17,15,25.40
2009,08,20,17,16,25.50
2009,08,20,17,17,25.60
2009,08,20,17,18,25.70
2009,08,20,17,19,25.80